QPF
0.00 0.00 0.00 0.00 0.00 0.00 0.00 0.00 0.00 0.00 0.00 0.00 0.00 0.01 0.01 0.00 0.00 0.00 0.00 0.00 0.01 0.01 0.01 0.00 0.00 0.00 0.00 0.01 0.02 0.03 0.05 0.07 0.09 0.10 0.13 0.18 0.15 0.18 0.19 0.22 0.26 0.24 0.18 0.15
0.00 0.00 0.00 0.00 0.00 0.00 0.00 0.00 0.00 0.00 0.00 0.00 0.00 0.00 0.00 0.00 0.00 0.00 0.00 0.00 0.00 0.01 0.01 0.01 0.00 0.00 0.00 0.00 0.00 0.01 0.02 0.03 0.05 0.05 0.06 0.09 0.12 0.13 0.17 0.28 0.35 0.35 0.31 0.26
0.00 0.00 0.00 0.00 0.00 0.00 0.00 0.00 0.00 0.00 0.00 0.00 0.00 0.00 0.00 0.00 0.00 0.01 0.01 0.01 0.02 0.01 0.02 0.02 0.01 0.01 0.01 0.00 0.00 0.00 0.00 0.00 0.01 0.02 0.02 0.04 0.07 0.09 0.14 0.19 0.32 0.42 0.40 0.37
0.00 0.00 0.00 0.00 0.00 0.00 0.00 0.00 0.00 0.00 0.00 0.00 0.00 0.00 0.00 0.00 0.01 0.02 0.02 0.03 0.03 0.03 0.03 0.02 0.01 0.01 0.01 0.00 0.00 0.00 0.00 0.00 0.00 0.00 0.00 0.01 0.03 0.05 0.07 0.16 0.27 0.40 0.46 0.45
0.00 0.00 0.00 0.00 0.00 0.00 0.00 0.00 0.00 0.00 0.00 0.00 0.00 0.00 0.00 0.00 0.01 0.02 0.02 0.03 0.03 0.03 0.02 0.02 0.02 0.01 0.01 0.00 0.00 0.00 0.00 0.00 0.00 0.00 0.00 0.00 0.00 0.01 0.04 0.08 0.13 0.20 0.30 0.41
0.00 0.00 0.00 0.00 0.00 0.00 0.00 0.00 0.00 0.00 0.00 0.00 0.00 0.00 0.00 0.00 0.01 0.01 0.01 0.02 0.02 0.02 0.02 0.02 0.02 0.01 0.01 0.01 0.01 0.01 0.01 0.00 0.00 0.00 0.00 0.00 0.01 0.01 0.02 0.03 0.05 0.10 0.19 0.29
0.00 0.00 0.00 0.00 0.00 0.00 0.00 0.00 0.00 0.00 0.00 0.00 0.00 0.00 0.00 0.00 0.00 0.00 0.01 0.02 0.02 0.03 0.04 0.05 0.05 0.04 0.04 0.04 0.04 0.03 0.02 0.01 0.01 0.01 0.00 0.01 0.01 0.01 0.01 0.02 0.02 0.04 0.07 0.12
0.00 0.00 0.00 0.00 0.00 0.00 0.00 0.00 0.00 0.00 0.00 0.00 0.00 0.00 0.00 0.00 0.00 0.00 0.02 0.03 0.03 0.06 0.09 0.11 0.10 0.11 0.09 0.10 0.11 0.07 0.04 0.03 0.02 0.02 0.01 0.01 0.01 0.01 0.01 0.01 0.01 0.02 0.02 0.04
0.00 0.00 0.00 0.00 0.00 0.00 0.00 0.00 0.00 0.00 0.00 0.00 0.00 0.00 0.00 0.00 0.00 0.01 0.03 0.06 0.08 0.12 0.13 0.15 0.17 0.19 0.18 0.17 0.17 0.13 0.10 0.09 0.07 0.04 0.02 0.01 0.01 0.01 0.01 0.01 0.01 0.01 0.02 0.02
0.00 0.00 0.00 0.00 0.00 0.00 0.00 0.00 0.00 0.00 0.00 0.00 0.00 0.00 0.01 0.01 0.01 0.02 0.04 0.07 0.11 0.13 0.14 0.15 0.18 0.19 0.17 0.18 0.19 0.21 0.20 0.16 0.11 0.07 0.05 0.03 0.01 0.01 0.01 0.00 0.00 0.01 0.01 0.01
0.00 0.00 0.00 0.00 0.00 0.00 0.00 0.00 0.00 0.00 0.00 0.00 0.00 0.00 0.01 0.02 0.02 0.03 0.03 0.04 0.07 0.07 0.09 0.12 0.12 0.14 0.16 0.22 0.24 0.24 0.25 0.21 0.17 0.12 0.08 0.05 0.02 0.01 0.00 0.00 0.00 0.00 0.00 0.01
0.00 0.00 0.00 0.00 0.00 0.00 0.00 0.00 0.00 0.00 0.00 0.00 0.00 0.00 0.00 0.01 0.01 0.01 0.02 0.02 0.03 0.03 0.03 0.04 0.05 0.07 0.09 0.13 0.18 0.20 0.24 0.21 0.16 0.14 0.11 0.06 0.03 0.02 0.02 0.01 0.01 0.01 0.01 0.01
0.00 0.00 0.00 0.00 0.00 0.00 0.00 0.00 0.00 0.00 0.00 0.00 0.00 0.00 0.00 0.00 0.00 0.00 0.01 0.01 0.01 0.01 0.01 0.01 0.01 0.01 0.03 0.05 0.09 0.11 0.14 0.14 0.09 0.08 0.07 0.06 0.04 0.03 0.02 0.01 0.01 0.01 0.01 0.01
0.00 0.00 0.00 0.00 0.00 0.00 0.00 0.00 0.00 0.00 0.00 0.00 0.00 0.00 0.00 0.00 0.00 0.00 0.00 0.00 0.00 0.00 0.00 0.00 0.00 0.00 0.00 0.01 0.01 0.02 0.02 0.03 0.02 0.02 0.02 0.01 0.01 0.01 0.01 0.01 0.01 0.00 0.01 0.02
0.00 0.00 0.00 0.00 0.00 0.00 0.00 0.00 0.00 0.00 0.00 0.00 0.00 0.00 0.00 0.00 0.00 0.00 0.00 0.00 0.00 0.00 0.00 0.00 0.00 0.00 0.00 0.00 0.00 0.00 0.00 0.00 0.00 0.00 0.00 0.00 0.00 0.00 0.00 0.00 0.00 0.00 0.00 0.00
0.00 0.00 0.00 0.00 0.00 0.00 0.00 0.00 0.00 0.00 0.00 0.00 0.00 0.00 0.00 0.00 0.00 0.00 0.00 0.00 0.00 0.00 0.00 0.00 0.00 0.00 0.00 0.00 0.00 0.00 0.00 0.00 0.00 0.00 0.00 0.00 0.00 0.00 0.00 0.00 0.00 0.00 0.00 0.00
0.00 0.00 0.00 0.00 0.00 0.00 0.00 0.00 0.00 0.00 0.00 0.00 0.00 0.00 0.00 0.00 0.00 0.00 0.00 0.00 0.00 0.00 0.00 0.00 0.00 0.00 0.00 0.00 0.00 0.00 0.00 0.00 0.00 0.00 0.00 0.00 0.00 0.00 0.00 0.00 0.00 0.00 0.00 0.00
0.00 0.00 0.00 0.00 0.00 0.00 0.00 0.00 0.00 0.00 0.00 0.00 0.00 0.00 0.00 0.00 0.00 0.00 0.00 0.00 0.00 0.00 0.00 0.00 0.00 0.00 0.00 0.00 0.00 0.00 0.00 0.00 0.00 0.00 0.00 0.00 0.00 0.00 0.00 0.00 0.00 0.00 0.00 0.00
0.00 0.00 0.00 0.00 0.00 0.00 0.00 0.00 0.00 0.00 0.00 0.00 0.00 0.00 0.00 0.00 0.00 0.00 0.00 0.00 0.00 0.00 0.00 0.00 0.00 0.00 0.00 0.00 0.00 0.00 0.00 0.00 0.00 0.00 0.00 0.00 0.00 0.00 0.00 0.00 0.00 0.00 0.00 0.00
0.00 0.00 0.00 0.00 0.00 0.00 0.00 0.00 0.00 0.00 0.00 0.00 0.00 0.00 0.00 0.00 0.00 0.00 0.00 0.00 0.00 0.00 0.00 0.00 0.00 0.00 0.00 0.00 0.00 0.00 0.00 0.00 0.00 0.00 0.00 0.00 0.00 0.00 0.00 0.00 0.00 0.00 0.00 0.00
0.00 0.00 0.00 0.00 0.00 0.00 0.00 0.00 0.00 0.00 0.00 0.00 0.00 0.00 0.00 0.00 0.00 0.00 0.00 0.00 0.00 0.00 0.00 0.00 0.00 0.00 0.00 0.00 0.00 0.00 0.00 0.00 0.00 0.00 0.00 0.00 0.00 0.00 0.00 0.00 0.00 0.00 0.00 0.00
0.00 0.00 0.00 0.00 0.00 0.00 0.00 0.00 0.00 0.00 0.00 0.00 0.00 0.00 0.00 0.00 0.00 0.00 0.00 0.00 0.00 0.00 0.00 0.00 0.00 0.00 0.00 0.00 0.00 0.00 0.00 0.00 0.00 0.00 0.00 0.00 0.00 0.00 0.00 0.00 0.00 0.00 0.00 0.00
0.00 0.00 0.00 0.00 0.00 0.00 0.00 0.00 0.00 0.00 0.00 0.00 0.00 0.00 0.00 0.00 0.00 0.00 0.00 0.00 0.00 0.00 0.00 0.00 0.00 0.00 0.00 0.00 0.00 0.00 0.00 0.00 0.00 0.00 0.00 0.00 0.00 0.00 0.00 0.00 0.00 0.00 0.00 0.00
0.00 0.00 0.00 0.00 0.00 0.00 0.00 0.00 0.00 0.00 0.00 0.00 0.00 0.00 0.00 0.00 0.00 0.00 0.00 0.00 0.00 0.00 0.00 0.00 0.00 0.00 0.00 0.00 0.00 0.00 0.00 0.00 0.00 0.00 0.00 0.00 0.00 0.00 0.00 0.00 0.00 0.00 0.00 0.00
0.00 0.00 0.00 0.00 0.00 0.00 0.00 0.00 0.00 0.00 0.00 0.00 0.00 0.00 0.00 0.00 0.00 0.00 0.00 0.00 0.00 0.00 0.00 0.00 0.00 0.00 0.00 0.00 0.00 0.00 0.00 0.00 0.00 0.00 0.00 0.00 0.00 0.00 0.00 0.00 0.00 0.00 0.00 0.00
0.00 0.00 0.00 0.00 0.00 0.00 0.00 0.00 0.00 0.00 0.00 0.00 0.00 0.00 0.00 0.00 0.00 0.00 0.00 0.00 0.00 0.00 0.00 0.00 0.00 0.00 0.00 0.00 0.00 0.00 0.00 0.00 0.00 0.00 0.00 0.00 0.00 0.00 0.00 0.00 0.00 0.00 0.00 0.00
MSLP
1017.39 1018.47 1019.29 1019.83 1020.15 1020.32 1020.46 1020.67 1021.02 1021.54 1022.20 1022.92 1023.60 1024.13 1024.43 1024.43 1024.14 1023.60 1022.88 1022.07 1021.26 1020.51 1019.85 1019.28 1018.78 1018.29 1017.78 1017.21 1016.58 1015.90 1015.19 1014.51 1013.90 1013.37 1012.96 1012.64 1012.43 1012.28 1012.19 1012.15 1012.15 1012.21 1012.35 1012.59
1019.03 1020.01 1020.69 1021.10 1021.27 1021.33 1021.37 1021.52 1021.85 1022.36 1023.02 1023.74 1024.41 1024.91 1025.17 1025.11 1024.75 1024.14 1023.35 1022.47 1021.60 1020.79 1020.08 1019.46 1018.91 1018.39 1017.86 1017.28 1016.66 1016.00 1015.34 1014.71 1014.13 1013.62 1013.20 1012.84 1012.54 1012.28 1012.05 1011.87 1011.74 1011.70 1011.77 1011.98
1020.41 1021.25 1021.78 1022.04 1022.10 1022.07 1022.07 1022.19 1022.51 1023.02 1023.68 1024.39 1025.03 1025.49 1025.69 1025.57 1025.14 1024.46 1023.61 1022.68 1021.76 1020.90 1020.14 1019.49 1018.90 1018.35 1017.80 1017.23 1016.64 1016.03 1015.43 1014.86 1014.35 1013.88 1013.47 1013.09 1012.73 1012.38 1012.04 1011.73 1011.48 1011.34 1011.34 1011.49
1021.47 1022.13 1022.52 1022.66 1022.64 1022.56 1022.56 1022.71 1023.06 1023.59 1024.25 1024.94 1025.54 1025.94 1026.07 1025.87 1025.37 1024.63 1023.73 1022.76 1021.80 1020.91 1020.11 1019.42 1018.80 1018.23 1017.67 1017.10 1016.54 1015.98 1015.45 1014.96 1014.51 1014.11 1013.73 1013.35 1012.97 1012.56 1012.14 1011.74 1011.40 1011.17 1011.09 1011.19
1022.23 1022.71 1022.95 1023.00 1022.95 1022.89 1022.94 1023.16 1023.57 1024.15 1024.83 1025.49 1026.04 1026.36 1026.40 1026.11 1025.53 1024.73 1023.79 1022.78 1021.80 1020.89 1020.08 1019.36 1018.71 1018.11 1017.54 1016.97 1016.43 1015.90 1015.42 1014.99 1014.61 1014.26 1013.93 1013.58 1013.19 1012.77 1012.31 1011.87 1011.47 1011.19 1011.05 1011.09
1022.76 1023.06 1023.19 1023.19 1023.15 1023.16 1023.31 1023.63 1024.13 1024.77 1025.46 1026.10 1026.58 1026.81 1026.74 1026.36 1025.70 1024.84 1023.85 1022.83 1021.84 1020.93 1020.11 1019.38 1018.71 1018.09 1017.49 1016.91 1016.36 1015.85 1015.39 1014.99 1014.65 1014.35 1014.05 1013.74 1013.39 1012.98 1012.54 1012.10 1011.70 1011.39 1011.22 1011.21
1023.14 1023.30 1023.35 1023.34 1023.36 1023.47 1023.75 1024.20 1024.80 1025.50 1026.19 1026.79 1027.19 1027.31 1027.13 1026.64 1025.90 1024.99 1023.98 1022.95 1021.97 1021.07 1020.27 1019.54 1018.86 1018.22 1017.59 1016.99 1016.41 1015.87 1015.40 1015.00 1014.67 1014.39 1014.12 1013.85 1013.54 1013.19 1012.80 1012.40 1012.03 1011.74 1011.55 1011.51
1023.45 1023.51 1023.52 1023.55 1023.66 1023.90 1024.31 1024.88 1025.57 1026.31 1026.99 1027.52 1027.82 1027.83 1027.53 1026.94 1026.13 1025.17 1024.16 1023.15 1022.20 1021.34 1020.56 1019.85 1019.18 1018.52 1017.87 1017.23 1016.60 1016.03 1015.52 1015.08 1014.73 1014.44 1014.19 1013.95 1013.69 1013.40 1013.08 1012.75 1012.44 1012.19 1012.02 1011.95
1023.70 1023.73 1023.76 1023.85 1024.06 1024.43 1024.96 1025.63 1026.38 1027.13 1027.77 1028.22 1028.41 1028.30 1027.88 1027.21 1026.34 1025.36 1024.36 1023.39 1022.49 1021.68 1020.96 1020.28 1019.63 1018.98 1018.31 1017.63 1016.96 1016.33 1015.77 1015.29 1014.89 1014.58 1014.32 1014.09 1013.88 1013.64 1013.40 1013.15 1012.91 1012.70 1012.56 1012.48
1023.90 1023.95 1024.04 1024.22 1024.54 1025.02 1025.64 1026.37 1027.14 1027.85 1028.42 1028.77 1028.84 1028.61 1028.11 1027.36 1026.47 1025.50 1024.52 1023.61 1022.78 1022.05 1021.39 1020.77 1020.16 1019.52 1018.86 1018.17 1017.47 1016.80 1016.18 1015.65 1015.21 1014.86 1014.58 1014.35 1014.15 1013.96 1013.78 1013.59 1013.41 1013.25 1013.13 1013.04
1024.01 1024.13 1024.32 1024.60 1025.02 1025.58 1026.25 1026.99 1027.72 1028.36 1028.83 1029.06 1029.02 1028.69 1028.12 1027.34 1026.44 1025.51 1024.60 1023.76 1023.02 1022.37 1021.79 1021.24 1020.68 1020.09 1019.45 1018.77 1018.07 1017.39 1016.75 1016.18 1015.70 1015.31 1015.01 1014.76 1014.57 1014.40 1014.24 1014.09 1013.95 1013.82 1013.71 1013.61
1024.03 1024.27 1024.56 1024.94 1025.43 1026.03 1026.70 1027.39 1028.04 1028.58 1028.92 1029.04 1028.89 1028.50 1027.88 1027.11 1026.25 1025.38 1024.55 1023.80 1023.16 1022.59 1022.09 1021.61 1021.11 1020.58 1019.99 1019.36 1018.70 1018.04 1017.41 1016.85 1016.35 1015.95 1015.61 1015.35 1015.14 1014.96 1014.80 1014.66 1014.53 1014.41 1014.29 1014.18
1024.00 1024.35 1024.75 1025.20 1025.73 1026.32 1026.94 1027.54 1028.07 1028.48 1028.69 1028.70 1028.47 1028.04 1027.43 1026.69 1025.90 1025.12 1024.39 1023.74 1023.18 1022.69 1022.26 1021.84 1021.41 1020.95 1020.43 1019.87 1019.28 1018.68 1018.11 1017.58 1017.11 1016.70 1016.36 1016.08 1015.84 1015.64 1015.46 1015.30 1015.16 1015.02 1014.88 1014.75
1023.99 1024.44 1024.90 1025.39 1025.91 1026.44 1026.96 1027.44 1027.83 1028.08 1028.18 1028.09 1027.81 1027.37 1026.80 1026.14 1025.45 1024.78 1024.15 1023.60 1023.11 1022.69 1022.31 1021.94 1021.56 1021.15 1020.71 1020.23 1019.74 1019.24 1018.75 1018.30 1017.88 1017.51 1017.18 1016.89 1016.64 1016.41 1016.20 1016.01 1015.83 1015.67 1015.50 1015.34
1024.07 1024.58 1025.07 1025.55 1026.00 1026.43 1026.82 1027.13 1027.36 1027.47 1027.45 1027.29 1027.00 1026.59 1026.09 1025.54 1024.97 1024.41 1023.90 1023.42 1023.00 1022.62 1022.26 1021.91 1021.56 1021.20 1020.82 1020.43 1020.04 1019.65 1019.28 1018.92 1018.59 1018.28 1017.99 1017.71 1017.45 1017.20 1016.97 1016.75 1016.54 1016.35 1016.16 1015.97
1024.31 1024.83 1025.29 1025.69 1026.04 1026.32 1026.54 1026.69 1026.75 1026.72 1026.60 1026.40 1026.11 1025.77 1025.37 1024.95 1024.51 1024.08 1023.67 1023.27 1022.89 1022.52 1022.16 1021.81 1021.46 1021.12 1020.79 1020.47 1020.17 1019.89 1019.63 1019.39 1019.15 1018.92 1018.69 1018.45 1018.20 1017.96 1017.71 1017.48 1017.26 1017.05 1016.85 1016.65
1024.72 1025.18 1025.56 1025.84 1026.04 1026.15 1026.18 1026.15 1026.05 1025.90 1025.71 1025.48 1025.24 1024.97 1024.70 1024.41 1024.12 1023.81 1023.49 1023.16 1022.81 1022.44 1022.06 1021.68 1021.31 1020.96 1020.65 1020.38 1020.15 1019.96 1019.80 1019.67 1019.53 1019.39 1019.23 1019.04 1018.84 1018.62 1018.39 1018.17 1017.96 1017.75 1017.55 1017.35
1025.23 1025.59 1025.83 1025.95 1025.97 1025.90 1025.75 1025.54 1025.30 1025.06 1024.81 1024.59 1024.40 1024.23 1024.08 1023.93 1023.78 1023.59 1023.37 1023.10 1022.77 1022.40 1021.99 1021.57 1021.16 1020.79 1020.47 1020.22 1020.03 1019.90 1019.82 1019.77 1019.72 1019.66 1019.58 1019.46 1019.31 1019.14 1018.96 1018.78 1018.59 1018.41 1018.24 1018.05
1025.71 1025.92 1026.00 1025.95 1025.79 1025.53 1025.21 1024.86 1024.51 1024.19 1023.93 1023.73 1023.60 1023.53 1023.50 1023.49 1023.46 1023.39 1023.26 1023.04 1022.75 1022.37 1021.95 1021.49 1021.05 1020.64 1020.31 1020.05 1019.88 1019.78 1019.75 1019.76 1019.77 1019.78 1019.77 1019.72 1019.64 1019.54 1019.41 1019.29 1019.15 1019.02 1018.87 1018.71
1025.98 1026.03 1025.95 1025.73 1025.40 1024.99 1024.55 1024.09 1023.67 1023.31 1023.04 1022.88 1022.81 1022.84 1022.92 1023.03 1023.12 1023.16 1023.11 1022.96 1022.70 1022.35 1021.92 1021.46 1020.99 1020.57 1020.21 1019.94 1019.76 1019.67 1019.66 1019.69 1019.75 1019.80 1019.85 1019.86 1019.85 1019.82 1019.76 1019.70 1019.63 1019.54 1019.43 1019.29
1025.90 1025.81 1025.57 1025.22 1024.76 1024.25 1023.72 1023.21 1022.76 1022.40 1022.16 1022.04 1022.04 1022.14 1022.32 1022.53 1022.71 1022.84 1022.88 1022.80 1022.61 1022.30 1021.90 1021.45 1020.99 1020.56 1020.20 1019.91 1019.72 1019.62 1019.61 1019.64 1019.72 1019.80 1019.88 1019.95 1020.00 1020.03 1020.04 1020.04 1020.02 1019.98 1019.91 1019.79
1025.41 1025.19 1024.83 1024.38 1023.86 1023.30 1022.74 1022.23 1021.79 1021.47 1021.28 1021.22 1021.28 1021.45 1021.70 1021.98 1022.24 1022.45 1022.56 1022.56 1022.44 1022.20 1021.86 1021.46 1021.04 1020.64 1020.28 1019.99 1019.79 1019.68 1019.64 1019.67 1019.74 1019.83 1019.93 1020.03 1020.12 1020.20 1020.27 1020.33 1020.36 1020.35 1020.31 1020.20
1024.50 1024.18 1023.76 1023.26 1022.72 1022.17 1021.65 1021.19 1020.82 1020.57 1020.45 1020.45 1020.57 1020.80 1021.09 1021.42 1021.73 1021.99 1022.17 1022.25 1022.20 1022.04 1021.79 1021.47 1021.11 1020.76 1020.43 1020.16 1019.96 1019.83 1019.77 1019.78 1019.83 1019.91 1020.02 1020.14 1020.26 1020.38 1020.49 1020.58 1020.64 1020.67 1020.63 1020.53
1023.27 1022.88 1022.43 1021.93 1021.43 1020.95 1020.52 1020.16 1019.90 1019.75 1019.71 1019.79 1019.96 1020.22 1020.54 1020.89 1021.23 1021.52 1021.75 1021.88 1021.92 1021.85 1021.69 1021.46 1021.19 1020.90 1020.62 1020.37 1020.18 1020.04 1019.96 1019.95 1019.98 1020.05 1020.15 1020.28 1020.41 1020.55 1020.69 1020.81 1020.89 1020.93 1020.90 1020.80
1021.85 1021.42 1020.97 1020.52 1020.10 1019.73 1019.43 1019.22 1019.10 1019.07 1019.12 1019.27 1019.49 1019.78 1020.11 1020.45 1020.79 1021.09 1021.35 1021.53 1021.62 1021.63 1021.56 1021.42 1021.23 1021.02 1020.79 1020.58 1020.40 1020.26 1020.17 1020.13 1020.14 1020.19 1020.29 1020.41 1020.56 1020.72 1020.87 1021.00 1021.11 1021.15 1021.13 1021.03
1020.39 1019.95 1019.52 1019.14 1018.83 1018.60 1018.46 1018.40 1018.43 1018.53 1018.70 1018.92 1019.18 1019.48 1019.80 1020.13 1020.45 1020.75 1021.00 1021.21 1021.35 1021.42 1021.42 1021.36 1021.24 1021.09 1020.91 1020.73 1020.57 1020.43 1020.32 1020.27 1020.26 1020.30 1020.38 1020.51 1020.66 1020.83 1021.00 1021.15 1021.26 1021.32 1021.31 1021.22
Thickness
5743 5726 5708 5710 5715 5718 5715 5705 5697 5695 5696 5683 5671 5665 5666 5671 5672 5671 5671 5672 5675 5678 5683 5688 5692 5695 5699 5703 5707 5713 5718 5725 5731 5737 5742 5747 5752 5756 5759 5761 5761 5760 5759 5756
5718 5703 5708 5714 5712 5708 5703 5692 5687 5686 5688 5675 5661 5658 5660 5662 5660 5659 5658 5658 5661 5666 5671 5675 5678 5680 5683 5687 5692 5697 5703 5711 5717 5724 5730 5737 5743 5750 5755 5758 5758 5758 5756 5754
5699 5699 5708 5703 5693 5692 5690 5683 5681 5678 5674 5667 5659 5650 5647 5651 5652 5652 5651 5649 5650 5652 5655 5659 5662 5664 5668 5672 5676 5682 5688 5696 5704 5712 5720 5728 5735 5741 5746 5749 5751 5753 5753 5752
5696 5698 5696 5690 5684 5680 5675 5683 5679 5675 5659 5643 5647 5633 5631 5633 5637 5640 5640 5639 5639 5641 5644 5646 5648 5650 5654 5658 5662 5668 5675 5683 5692 5700 5707 5715 5722 5728 5734 5739 5743 5746 5746 5747
5690 5691 5685 5680 5680 5679 5674 5677 5672 5667 5651 5633 5627 5623 5618 5622 5623 5626 5627 5629 5630 5632 5633 5634 5635 5638 5642 5647 5651 5656 5664 5672 5680 5689 5696 5704 5712 5719 5726 5731 5734 5736 5738 5739
5688 5690 5684 5679 5680 5678 5673 5670 5660 5647 5636 5618 5614 5613 5609 5610 5612 5616 5620 5621 5622 5624 5625 5626 5627 5629 5633 5638 5642 5647 5653 5661 5668 5677 5685 5693 5701 5708 5714 5720 5724 5726 5728 5729
5674 5675 5677 5678 5668 5668 5660 5651 5638 5632 5615 5610 5615 5610 5606 5613 5614 5613 5613 5615 5616 5617 5617 5618 5619 5621 5626 5631 5635 5639 5645 5651 5658 5665 5673 5681 5688 5696 5702 5707 5711 5714 5716 5718
5665 5655 5666 5668 5659 5654 5651 5642 5629 5624 5614 5606 5611 5605 5607 5616 5615 5614 5612 5611 5613 5613 5613 5613 5614 5616 5620 5625 5630 5634 5639 5644 5650 5656 5662 5669 5677 5683 5689 5694 5699 5702 5704 5707
5660 5656 5669 5668 5662 5657 5647 5634 5634 5618 5612 5603 5605 5609 5613 5616 5613 5612 5611 5610 5609 5610 5610 5610 5611 5614 5617 5622 5627 5631 5635 5639 5643 5649 5655 5661 5667 5672 5677 5682 5686 5690 5693 5696
5669 5656 5659 5663 5661 5653 5644 5635 5624 5617 5608 5602 5603 5602 5598 5604 5606 5608 5608 5607 5607 5609 5609 5609 5609 5612 5615 5620 5625 5629 5632 5634 5638 5642 5648 5653 5657 5662 5667 5671 5675 5678 5681 5684
5674 5657 5652 5653 5645 5638 5638 5632 5617 5605 5603 5596 5594 5597 5611 5607 5606 5604 5605 5607 5607 5608 5609 5609 5610 5612 5615 5618 5621 5624 5627 5630 5633 5637 5641 5645 5649 5654 5658 5661 5663 5666 5669 5672
5670 5653 5644 5651 5655 5652 5641 5631 5622 5612 5600 5598 5594 5597 5619 5613 5609 5608 5607 5609 5610 5611 5612 5613 5613 5613 5615 5616 5619 5621 5623 5627 5629 5633 5636 5639 5643 5646 5649 5652 5654 5657 5659 5661
5675 5658 5646 5647 5646 5646 5641 5634 5624 5614 5604 5599 5595 5602 5620 5615 5614 5613 5611 5611 5613 5614 5615 5616 5616 5615 5616 5617 5618 5620 5622 5625 5628 5631 5633 5635 5637 5640 5642 5644 5645 5647 5649 5650
5680 5657 5651 5647 5644 5644 5642 5638 5631 5620 5606 5604 5604 5608 5616 5616 5615 5615 5615 5614 5616 5617 5618 5618 5618 5618 5619 5619 5619 5621 5623 5625 5627 5629 5630 5631 5633 5634 5635 5637 5638 5639 5640 5641
5683 5661 5659 5657 5657 5652 5648 5644 5639 5630 5620 5611 5616 5615 5618 5620 5619 5618 5618 5618 5620 5621 5622 5622 5622 5622 5623 5623 5623 5624 5624 5625 5627 5627 5628 5628 5629 5630 5631 5631 5632 5632 5633 5633
5682 5669 5665 5660 5661 5656 5651 5650 5646 5640 5631 5625 5624 5622 5630 5629 5626 5624 5623 5623 5622 5623 5625 5626 5627 5628 5628 5627 5627 5626 5627 5627 5627 5627 5626 5627 5627 5627 5626 5626 5626 5625 5625 5625
5678 5671 5660 5652 5659 5654 5649 5656 5652 5649 5645 5638 5630 5633 5639 5635 5632 5630 5629 5628 5627 5628 5630 5631 5631 5632 5633 5633 5632 5631 5630 5630 5629 5627 5626 5625 5625 5623 5622 5622 5620 5619 5617 5617
5682 5670 5656 5652 5655 5652 5669 5677 5669 5660 5658 5651 5648 5646 5645 5641 5640 5639 5637 5634 5633 5634 5635 5636 5637 5638 5639 5639 5638 5637 5635 5633 5631 5629 5627 5625 5623 5621 5620 5618 5616 5614 5613 5611
5688 5675 5660 5652 5653 5658 5676 5679 5673 5664 5662 5665 5657 5655 5653 5649 5644 5640 5644 5643 5641 5641 5641 5641 5642 5643 5643 5643 5643 5641 5639 5637 5634 5631 5628 5625 5623 5620 5618 5615 5613 5611 5609 5606
5684 5679 5666 5657 5663 5665 5685 5692 5687 5676 5665 5677 5669 5662 5656 5648 5635 5638 5650 5650 5648 5648 5647 5647 5647 5647 5647 5647 5647 5645 5642 5640 5637 5634 5631 5627 5624 5620 5617 5614 5611 5609 5606 5603
5684 5675 5669 5662 5663 5674 5696 5695 5689 5665 5674 5688 5679 5670 5660 5652 5649 5652 5655 5654 5653 5652 5652 5652 5650 5649 5650 5650 5650 5647 5645 5643 5641 5638 5634 5629 5625 5621 5617 5614 5611 5608 5604 5601
5684 5674 5668 5663 5665 5677 5703 5696 5689 5691 5698 5693 5686 5679 5669 5664 5662 5660 5659 5658 5657 5655 5655 5654 5652 5652 5652 5652 5651 5649 5647 5647 5645 5641 5636 5631 5626 5623 5619 5614 5610 5607 5603 5600
5691 5693 5686 5686 5697 5711 5710 5711 5713 5709 5702 5697 5691 5685 5678 5671 5667 5666 5664 5662 5659 5658 5656 5655 5654 5653 5654 5654 5653 5651 5651 5650 5647 5643 5637 5632 5627 5623 5618 5615 5610 5606 5603 5599
5698 5699 5695 5694 5706 5712 5714 5714 5716 5711 5708 5704 5698 5692 5684 5678 5674 5670 5666 5663 5661 5659 5658 5657 5656 5655 5655 5655 5655 5654 5654 5653 5650 5644 5639 5634 5629 5624 5619 5615 5611 5607 5603 5598
5711 5698 5697 5701 5713 5717 5720 5718 5718 5714 5711 5706 5701 5696 5690 5684 5679 5674 5668 5666 5664 5662 5660 5658 5657 5656 5656 5657 5657 5657 5656 5655 5651 5646 5641 5636 5631 5626 5621 5616 5612 5608 5604 5600
5712 5710 5709 5713 5726 5722 5726 5728 5723 5716 5712 5708 5703 5697 5693 5688 5683 5678 5672 5669 5666 5664 5662 5660 5659 5658 5658 5658 5659 5659 5659 5657 5653 5648 5643 5638 5633 5628 5623 5619 5615 5612 5608 5604